Overview Statistics Trail Chart Weather Telemetry Raw packets
 

This is the latest recevied weather packets stored in our database for station/object SV9TNF-52. If no packets are shown the sender has not sent any weather packets the latest 10 day(s).

<< 84 85 86 87 88 89 90 >>
Time Temp. Humidity Pressure Rain* Wind** Luminosity Snow
1788062829 22.22° C 71% 1020.7 hPa 0 mm 4.47 m/s, 200° - -
1788062529 22.22° C 70% 1020.7 hPa 0 mm 8.05 m/s, 217° - -
1788062229 22.22° C 70% 1020.7 hPa 0 mm 5.36 m/s, 195° - -
1788061929 22.22° C 70% 1020.7 hPa 0 mm 4.92 m/s, 199° - -
1788061629 22.22° C 70% 1020.7 hPa 0 mm 4.47 m/s, 184° - -
1788061329 22.22° C 70% 1020.7 hPa 0 mm 4.02 m/s, 198° - -
1788061029 22.22° C 70% 1020.7 hPa 0 mm 8.05 m/s, 251° - -
1788060728 22.22° C 69% 1020.7 hPa 0 mm 6.26 m/s, 216° - -
1788060429 22.78° C 68% 1020.7 hPa 0 mm 3.58 m/s, 255° - -
1788060129 22.78° C 67% 1021 hPa 0 mm 8.05 m/s, 164° - -
1788059834 23.33° C 66% 1021 hPa 0 mm 4.92 m/s, 169° - -
1788059528 23.89° C 66% 1021 hPa 0 mm 4.02 m/s, 166° - -
1788059228 23.89° C 66% 1021 hPa 0 mm 5.36 m/s, 149° - -
1788058928 23.89° C 66% 1021 hPa 0 mm 3.13 m/s, 90° - -
1788058628 23.33° C 66% 1021 hPa 0 mm 1.79 m/s, 71° - -
1788058328 23.33° C 66% 1021 hPa 0 mm 2.68 m/s, 91° - -
1788058028 23.33° C 67% 1021 hPa 0 mm 5.81 m/s, 93° - -
1788057728 22.78° C 68% 1021 hPa 0 mm 9.83 m/s, 113° - -
1788057428 22.78° C 68% 1021 hPa 0 mm 8.05 m/s, 142° - -
1788057127 22.22° C 69% 1021 hPa 0 mm 6.26 m/s, 215° - -
1788056827 21.67° C 69% 1021 hPa 0 mm 8.49 m/s, 180° - -
1788056527 22.22° C 69% 1021 hPa 0 mm 8.05 m/s, 172° - -
1788056227 22.22° C 69% 1021 hPa 0 mm 7.15 m/s, 196° - -
1788055927 22.22° C 69% 1021 hPa 0 mm 9.39 m/s, 180° - -
1788055627 22.22° C 69% 1020.7 hPa 0 mm 7.6 m/s, 186° - -

* Rain latest hour (hover to see other rain measurements)
** Current wind speed in m/s (hover to see current wind gust speed)